AO-07 1 07530U 74089B 26247.29119824 -.00000049 00000-0 -18253-4 0 9998 2 07530 101.9921 261.3651 0012142 342.0763 29.2024 12.53699386370437 UO-11 1 14781U 84021B 26246.34444691 .00000813 00000-0 87973-4 0 9991 2 14781 97.8147 211.0902 0006107 290.6044 69.4519 14.90965871268777 LO-19 1 20442U 90005G 26247.29905439 .00000023 00000-0 24831-4 0 9995 2 20442 98.8833 271.2765 0011082 339.3872 20.6863 14.34141707913730 AO-27 1 22825U 93061C 26247.15314876 .00000027 00000-0 27213-4 0 9992 2 22825 98.6811 314.5111 0007609 222.8883 137.1706 14.30959201718291 FO-29 1 24278U 96046B 26246.53182290 -.00000042 00000-0 -40044-5 0 9993 2 24278 98.5180 84.6643 0348862 253.0801 103.1824 13.53277555483767 GO-32 1 25397U 98043D 26246.45519830 .00000011 00000-0 25077-4 0 9992 2 25397 99.0140 241.2127 0001595 34.3286 325.7995 14.24441079462475 ISS 1 25544U 98067A 26247.07916240 .00003366 00000-0 69282-4 0 9999 2 25544 51.6313 269.6269 0005012 105.0359 255.1184 15.48983228583981 NO-44 1 26931U 01043C 26246.52515091 .00000030 00000-0 42113-4 0 9995 2 26931 67.0508 41.6478 0005675 271.2117 88.8335 14.31980432301669 SO-50 1 27607U 02058C 26246.44033043 .00000550 00000-0 82640-4 0 9992 2 27607 64.5502 246.8434 0072636 248.0877 111.2497 14.83191838276069 CO-55 1 27844U 03031E 26247.27566467 .00000139 00000-0 79051-4 0 9995 2 27844 98.6770 254.8516 0008774 321.9219 38.1339 14.24376341202936 RS-22 1 27939U 03042A 26247.33306920 .00000633 00000-0 10552-3 0 9994 2 27939 98.3489 73.9482 0011855 23.5048 100.3058 14.73586655227208 CO-65 1 32785U 08021C 26247.24995419 .00002816 00000-0 17690-3 0 9993 2 32785 97.8361 230.3858 0010248 114.9279 245.3015 15.10083574997120 CO-66 1 32791U 08021J 26246.54295834 .00013557 00000-0 39867-3 0 9990 2 32791 97.7568 248.3499 0004147 63.7028 296.4640 15.35220704999307 RS-30 1 32953U 08025A 26247.20844628 .00000101 00000-0 65480-3 0 9990 2 32953 82.5042 306.2961 0020487 137.2277 223.0401 12.43182958829512 SRMSAT 1 37841U 11058D 26246.18399727 .00000358 00000-0 50299-4 0 9999 2 37841 19.9724 307.3668 0011772 343.1487 42.0039 14.11590090768850 ZACUBE-1 1 39417U 13066B 26246.44912756 .00003967 00000-0 30448-3 0 9995 2 39417 97.8090 209.1710 0041052 351.4148 8.6369 15.01710572692476 Delfi-N3xt 1 39428U 13066N 26247.19653824 .00004612 00000-0 39614-3 0 9990 2 39428 97.8288 167.4620 0071493 304.7259 54.7242 14.95983601686437 GOMX-1 1 39430U 13066Q 26247.30477977 .00001282 00000-0 19763-3 0 9992 2 39430 97.6447 82.7813 0127847 182.5934 177.4626 14.69663503681537 LO-74 1 39440U 13066AA 26247.29471499 .00001602 00000-0 15019-3 0 9990 2 39440 97.8966 196.6587 0058337 123.8971 236.7816 14.94212880688808 AO-73 1 39444U 13066AE 26246.91534669 .00004461 00000-0 27169-3 0 9996 2 39444 97.8366 220.0950 0033704 297.3080 62.4718 15.10473457691549 DTUSAT-2 1 40030U 14033W 26247.27230590 .00003934 00000-0 20920-3 0 9992 2 40030 98.0921 250.0961 0006859 337.9794 22.1141 15.15913542664666 LILACSAT-2 1 40908U 15049K 26247.28250873 .00012993 00000-0 20275-3 0 9999 2 40908 97.4581 287.2414 0005283 337.8446 22.2578 15.53954468608020 Lapan A3 1 41603U 16040E 26247.28607905 .00001871 00000-0 59928-4 0 9997 2 41603 97.1557 240.8835 0012153 91.7291 268.5344 15.33540853566939 CAS-2T 1 41847U 16066G 26246.63622646 .00000436 00000-0 71328-4 0 9996 2 41847 98.3766 321.4724 0340097 251.4369 104.9601 14.44824748516123 TechnoSat 1 42829U 17042E 26246.42980848 .00002044 00000-0 14641-3 0 9991 2 42829 97.4394 41.1788 0017405 181.1713 178.9477 15.05350382498478 AO-91 1 43017U 17073E 26247.09698733 .00005764 00000-0 24534-3 0 9992 2 43017 97.4583 112.7013 0149192 56.2842 305.2508 15.13757427477329 S-Net D 1 43186U 18014G 26247.15384700 .00002963 00000-0 15197-3 0 9991 2 43186 97.5261 151.4476 0009838 101.8142 258.4195 15.17300409470732 S-Net B 1 43187U 18014H 26247.16690072 .00002652 00000-0 13647-3 0 9998 2 43187 97.5266 151.4492 0010483 97.9248 262.3175 15.17268340470735 S-Net A 1 43188U 18014J 26247.15229449 .00002994 00000-0 15344-3 0 9999 2 43188 97.5276 151.6590 0010394 98.7074 261.5337 15.17308905470738 S-Net C 1 43189U 18014K 26246.24795154 .00002623 00000-0 13505-3 0 9996 2 43189 97.5295 150.8469 0011750 95.3334 264.9240 15.17253303469149 Ten-Koh 1 43677U 18084G 26247.27682636 .00001150 00000-0 89890-4 0 9994 2 43677 98.0756 82.9845 0008729 204.1836 155.8979 15.03217321428047 PO-101 1 43678U 18084H 26247.32079682 .00000900 00000-0 76236-4 0 9994 2 43678 98.1191 87.0128 0010807 264.9979 95.0010 15.00700176428081 QO-100 1 43700U 18090A 26246.60299455 .00000142 00000-0 00000-0 0 9999 2 43700 0.0171 225.7431 0002680 334.4791 25.4064 1.00273407 28461 MinXSS-2 1 43758U 18099A 26247.19468199 .00032661 00000-0 53403-3 0 9998 2 43758 97.4453 326.0865 0005306 338.1047 21.9978 15.52458071426366 AO-95 1 43770U 18099N 26247.14734666 .00006788 00000-0 24919-3 0 9993 2 43770 97.4306 307.1549 0009825 73.5305 286.7014 15.28227299425273 SNUSat 2 1 43782U 18099AA 26247.07579286 .00004811 00000-0 20785-3 0 9995 2 43782 97.3986 299.2744 0010540 28.3183 331.8624 15.22909177425034 SnugLite 1 43784U 18099AC 26247.12309687 .00005958 00000-0 21636-3 0 9998 2 43784 97.3793 300.6797 0003305 41.8960 318.2532 15.28674583425371 ITASat 1 1 43786U 18099AE 26247.11143000 .00003828 00000-0 18092-3 0 9990 2 43786 97.3956 297.0639 0013916 79.1929 281.0872 15.19915435424890 EAGLET 1 1 43790U 18099AJ 26247.00845530 .00002528 00000-0 14476-3 0 9998 2 43790 97.4160 294.5854 0012620 76.0041 284.2593 15.13448670424257 ESEO 1 43792U 18099AL 26247.06806110 .00000276 00000-0 23874-4 0 9998 2 43792 97.3914 281.0664 0013524 67.1343 293.1310 15.04440395423661 JO-97 1 43803U 18099AX 26245.67914214 .00011054 00000-0 31782-3 0 9993 2 43803 97.4050 308.8805 0005070 11.0171 349.1183 15.35966712425511 Suomi 100 1 43804U 18099AY 26247.11812526 .00008072 00000-0 27944-3 0 9999 2 43804 97.4106 307.2791 0009445 10.4307 349.7128 15.30090288425487 ISAT 1 43879U 18111D 26246.78352384 .00244986 00000-0 88785-3 0 9995 2 43879 97.5798 189.1593 0007033 114.4887 245.7119 15.87922249423535 UWE-4 1 43880U 18111E 26247.24582061 .00028782 00000-0 49602-3 0 9995 2 43880 97.5812 179.5585 0008850 53.7298 306.4769 15.50978455423016 Prox-1 1 44339U 19036A 26246.46850933 .00007412 00000-0 68096-3 0 9996 2 44339 23.9959 310.6432 0005000 218.1218 141.8929 14.92262855385171 Taurus 1 1 44530U 19059C 26247.27275512 .00001478 00000-0 23987-3 0 9994 2 44530 98.6499 57.0896 0009370 67.3312 292.8884 14.72802795370285 TO-108 1 44881U 19093C 26247.26879862 .00000089 00000-0 16031-4 0 9998 2 44881 97.7463 317.5506 0013216 180.6694 179.4507 14.86619419363168 RS-44 1 44909U 19096E 26247.12270283 .00000006 00000-0 -14150-4 0 9999 2 44909 82.5189 287.2592 0216719 320.0508 38.4816 12.79749119312444 SALSAT 1 46495U 20068K 26246.48051839 .00004593 00000-0 15704-3 0 9993 2 46495 97.8890 254.3854 0010379 37.1076 323.0879 15.30786953327333 CSS (TIANHE-1) 1 48274U 21035A 26247.27584701 .00012851 00000-0 16092-3 0 9999 2 48274 41.4678 201.8778 0002244 257.0759 102.9829 15.59565750305510 TeikyoSat 4 1 49396U 21102B 26247.06416159 .00000908 00000-0 59948-4 0 9996 2 49396 97.3641 273.4786 0012698 28.8363 331.3566 15.09744341264621 Z-Sat 1 49399U 21102E 26247.27194117 .00002076 00000-0 10274-3 0 9995 2 49399 97.3283 280.2009 0015596 337.2945 22.7598 15.18791913265447 KOSEN 1 1 49402U 21102H 26247.15288940 .00004037 00000-0 15108-3 0 9995 2 49402 97.3125 287.8030 0011545 290.0565 69.9432 15.27819418266079 HO-113 1 50466U 21131B 26247.26012791 .00000396 00000-0 13591-3 0 9998 2 50466 98.4970 339.2207 0003457 205.5586 154.5433 14.41418585246509 SNUGLITE 2 1 52899U 22065F 26246.67602941 .00000547 00000-0 11254-3 0 9995 2 52899 98.2314 31.4222 0008425 131.5932 228.5994 14.64469377222487 UmKA 1 (RS40S) 1 57172U 23091G 26247.22565657 .00003168 00000-0 14338-3 0 9996 2 57172 97.4973 305.6295 0012038 196.3024 163.7826 15.21582984176026 CubeBel-2 (EU11S) 1 57175U 23091K 26247.25166009 .00008217 00000-0 27767-3 0 9990 2 57175 97.4972 311.2431 0009300 185.2417 174.8727 15.30877810176392 RS-38S 1 57189U 23091Z 26247.23922093 .00011450 00000-0 30505-3 0 9993 2 57189 97.5018 318.4126 0007858 140.0012 220.1813 15.38316271176832 SONATE-2 1 59112U 24043Q 26246.88606683 .00038407 00000-0 39365-3 0 9997 2 59112 97.5612 42.5196 0005086 267.3754 92.6923 15.64866637140176 GRBBeta 1 60237U 24128C 26247.11920651 .00001507 00000-0 11340-3 0 9996 2 60237 61.9898 299.2300 0029231 151.9737 208.2938 15.07124213118161 Curium One 1 60242U 24128H 26247.07963120 .00003425 00000-0 20118-3 0 9999 2 60242 61.9780 286.1319 0028253 146.5466 213.7422 15.13516038118395 ROBUSTA-3A 1 60243U 24128J 26247.15623570 .00002837 00000-0 17288-3 0 9991 2 60243 61.9860 288.7793 0030186 143.7264 216.5886 15.12629991118366 CatSat 1 60246U 24125J 26247.03793368 .00074724 00000-0 62711-3 0 9996 2 60246 97.1988 101.1379 0014695 239.5850 120.3961 15.69554908119714 AO-123 1 61781U 24199AY 26247.24264088 .00004814 00000-0 13610-3 0 9994 2 61781 97.2872 115.2071 0014338 31.6693 328.5411 15.36708553146068 LASARsat 1 62391U 24247Q 26247.17999666 .00029551 00000-0 49584-3 0 9999 2 62391 44.9718 176.6965 0007695 130.3687 229.7877 15.51300458 95560 CroCube 1 62394U 24247T 26246.09744806 .00034434 00000-0 52350-3 0 9997 2 62394 44.9691 178.6306 0008080 133.3796 226.7771 15.53966732 95449 JINJUSat 1B 1 63210U 25052A 26247.17191552 .00010865 00000-0 31429-3 0 9990 2 63210 97.3879 144.1169 0004315 132.6276 227.5332 15.35782732 82213 NUSHSAT 1 1 63211U 25052B 26246.68279232 .00014086 00000-0 36819-3 0 9995 2 63211 97.3854 144.4968 0003950 132.2518 227.9063 15.38868649 82205 TEVEL2-4 1 63213U 25052D 26246.94808636 .00012834 00000-0 35440-3 0 9990 2 63213 97.3775 143.5693 0003253 139.2354 220.9134 15.37194006 82205 TEVEL2-5 1 63214U 25052E 26247.17384100 .00012393 00000-0 34465-3 0 9998 2 63214 97.3772 143.7191 0003066 140.8927 219.2539 15.36982226 82235 TEVEL2-6 1 63215U 25052F 26246.14624772 .00011694 00000-0 32600-3 0 9999 2 63215 97.3778 142.6725 0002919 143.3877 216.7567 15.36922287 82077 TEVEL2-1 1 63217U 25052H 26247.18171363 .00012160 00000-0 34550-3 0 9994 2 63217 97.3749 143.2361 0002702 152.7349 207.4038 15.36319803 82218 TEVEL2-3 1 63218U 25052J 26246.26118334 .00012711 00000-0 36042-3 0 9992 2 63218 97.3754 142.3472 0002301 151.0373 209.0999 15.36372118 82078 TEVEL2-2 1 63219U 25052K 26247.18142587 .00012236 00000-0 34748-3 0 9995 2 63219 97.3750 143.2401 0002737 154.6183 205.5196 15.36333945 82219 TEVEL2-9 1 63237U 25052AD 26246.93982935 .00010551 00000-0 32156-3 0 9995 2 63237 97.3810 142.1909 0004780 200.9355 159.1692 15.34138426 82099 TEVEL2-7 1 63238U 25052AE 26246.67117507 .00010226 00000-0 31533-3 0 9999 2 63238 97.3813 141.8014 0004651 202.9397 157.1639 15.33776485 82047 TEVEL2-8 1 63239U 25052AF 26246.22341519 .00010344 00000-0 31912-3 0 9995 2 63239 97.3815 141.3287 0004652 205.8252 154.2759 15.33757128 81975 SPIRONE 1 66657U 25274H 26246.76713741 .00001167 00000-0 11519-3 0 9991 2 66657 97.7473 174.9457 0013491 109.7032 250.5645 14.93810836 41955 K-HERO 1 66660U 25274L 26246.34862714 .00001519 00000-0 14678-3 0 9994 2 66660 97.7479 174.7506 0015305 115.4170 244.8637 14.94205385 41901 SNUGLITE-III DURI 1 66661U 25274M 26246.60297744 .00000986 00000-0 97167-4 0 9991 2 66661 97.7478 175.0222 0015873 115.7805 244.5055 14.94215233 41946 SAKHACUBE-CHOLBON 1 67290U 25313AU 26247.13398499 .00006109 00000-0 23889-3 0 9994 2 67290 97.3867 321.2271 0010479 80.5327 279.7095 15.26163933 38010 RS95S (QMR-KWT-2) 1 67291U 25313AV 26246.18322759 .00008267 00000-0 30361-3 0 9995 2 67291 97.3863 320.6591 0009938 81.8454 278.3913 15.28139513 37896 Ten-Koh2 1 68261U 25241B 26246.55793044 .00003260 00000-0 14321-3 0 9999 2 68261 51.6654 306.3832 0007556 42.6075 317.5489 15.24773493 26868 JACK-002 1 68417U 26067B 26246.83887093 .00004554 00000-0 21309-3 0 9999 2 68417 97.4645 204.5366 0002916 46.0726 314.0749 15.20245705 23893 DISCO 2 1 68431U 26067R 26246.60797894 .00004631 00000-0 21741-3 0 9995 2 68431 97.4677 204.3054 0004185 85.0810 275.0903 15.20120074 23858 HADES-SA (SpinnyONE) 1 68446U 26067AG 26246.61112233 .00011215 00000-0 50083-3 0 9997 2 68446 97.4470 203.8990 0007685 143.2877 216.8887 15.21498098 23844 PARUS-6U1 1 68456U 26067AS 26246.83450497 .00003513 00000-0 17488-3 0 9993 2 68456 97.4628 204.0601 0006651 135.9524 224.2241 15.18234760 23860 SAL-E 1 68458U 26067AU 26246.41479348 .00004964 00000-0 24210-3 0 9997 2 68458 97.4554 203.5494 0006625 144.3856 215.7822 15.18750560 23802 FSI-SAT 2 1 68792U 26088A 26246.89621956 .00003417 00000-0 22958-3 0 9996 2 68792 97.5174 34.2595 0013944 193.4313 166.6546 15.07366229 20142 OrigamiSat 2 1 68795U 26088D 26246.38166811 .00008109 00000-0 49731-3 0 9998 2 68795 97.5166 34.1769 0015050 166.2712 193.8930 15.10304392 20099 ARICA 2 1 68796U 26088E 26246.35751771 .00003355 00000-0 21587-3 0 9998 2 68796 97.5171 34.0408 0015814 165.7815 194.3863 15.08963734 20089 WASEDA-SAT-ZERO-II 1 68797U 26088F 26246.86658067 .00003737 00000-0 23708-3 0 9990 2 68797 97.5166 34.5837 0015717 163.0583 197.1174 15.09408262 20166 MANGARO-II-Piscus 1 68798U 26088G 26246.72452594 .00001817 00000-0 11764-3 0 9999 2 68798 97.5178 34.4852 0019165 167.4871 192.6838 15.09261437 20141 CO-128 1 69912U 26156AV 26246.46535466 .00000994 00000-0 10633-3 0 9994 2 69912 97.7491 145.8840 0001779 348.3454 11.7723 14.90917970 8669 MARINA 1 69920U 26156BD 26246.95610418 .00001332 00000-0 13645-3 0 9991 2 69920 97.7458 146.4496 0006685 331.7450 28.3405 14.92128142 8745 IO-86 1 40931U 26199.45381863 .00000000 00000-0 77536-4 0 07 2 40931 6.0006 322.6653 0012733 338.8432 273.6875 14.79294310 03 LILIUM-4 1 71922C 26067AC 26089.50133053 -.00014632 00000 0 -74472-3 0 04 2 71922 97.4497 49.1617 0004341 5.9603 355.7042 15.16896692 16